Погода в Бечичи

Черногория     42°16′59″N   18°52′38″E
темп.,
°C
ветер,
м/с
пор.,
м/с
влажн.,
%
обл.,
%
осадки,
мм/ч
давл.,
гПа
погр.,
м
15 мая, сб
сб1523:00+13юв2488100 0.8 1013146
02:00+13юв3689100 3.2 1012322
05:00+12ююв2496100 6.4 1011243
08:00+12св3496100 13.6 1011176
11:00+12в2394100 5.1 1012163
14:00+13в2290100 5.9 1011293
17:00+13св118696 0.1 1011195
20:00+12всв228652 0.1 101171
16 мая, вс
вс1623:00+11ссв228789 0.0 101250
02:00+10ссв1286100 0.0 101334
05:00+10ссв1187100 0.0 101235
08:00+13всв1180100 0.0 1013196
11:00+17юз2269100 0.0 1013786
14:00+17юз337050 0.1 1013721
17:00+16юз227298 0.1 1012377
20:00+14вюв117847 0.1 101228
17 мая, пн
пн1723:00+13ссз118561 0.0 101327
02:00+14всв227979 0.0 101237
05:00+12св23908 0.0 101248
08:00+16всв22737 0.0 1012226
11:00+20ююв35597 0.0 10121008
14:00+20ю35598 0.0 10121046
17:00+20ююв34646 0.0 1011718
20:00+16всв118254 0.0 101112
18 мая, вт
вт1823:00+16всв227792 0.0 101248
02:00+14св238255 0.0 101248
05:00+15всв337781 0.0 101371
08:00+17всв238015 0.0 1014406
11:00+20вюв336940 0.0 1014866
14:00+21ю346628 0.1 1013905
17:00+20ю337076 0.1 1013661
20:00+16вюв22828 0.1 101220
19 мая, ср
ср1923:00+17вюв25701 0.0 1011122
02:00+14юз3387100 0.7 1012112
05:00+13всв118741 0.3 101330
08:00+16з46720 0.3 1014968
11:00+16з58644 0.0 10151263
14:00+16зюз576643 0.1 10141220
17:00+15юз236715 0.0 1014924
20:00+12св347757 0.3 1015272